owner,sensor,date,latitude,longitude,sea_surface_height_above_sea_level,qcFlag 
TCOON,ioos:station:TCOON:013:1,2014-08-01T00:12:00Z,27.4847,-97.3181,0.474,1111122 
TCOON,ioos:station:TCOON:013:1,2014-08-01T01:12:00Z,27.4847,-97.3181,0.472,1111122 
TCOON,ioos:station:TCOON:013:1,2014-08-01T02:12:00Z,27.4847,-97.3181,0.468,1111122 
TCOON,ioos:station:TCOON:013:1,2014-08-01T03:12:00Z,27.4847,-97.3181,0.462,1111122 
TCOON,ioos:station:TCOON:013:1,2014-08-01T04:12:00Z,27.4847,-97.3181,0.464,1111122 
TCOON,ioos:station:TCOON:013:1,2014-08-01T05:12:00Z,27.4847,-97.3181,0.466,1111122 
TCOON,ioos:station:TCOON:013:1,2014-08-01T06:42:00Z,27.4847,-97.3181,0.467,1111122 
TCOON,ioos:station:TCOON:013:1,2014-08-01T07:06:00Z,27.4847,-97.3181,0.468,1111122 
TCOON,ioos:station:TCOON:013:1,2014-08-01T08:12:00Z,27.4847,-97.3181,0.47,1111122 
TCOON,ioos:station:TCOON:013:1,2014-08-01T09:12:00Z,27.4847,-97.3181,0.47,1111122 
TCOON,ioos:station:TCOON:013:1,2014-08-01T10:12:00Z,27.4847,-97.3181,0.47,1111122 
TCOON,ioos:station:TCOON:013:1,2014-08-01T11:12:00Z,27.4847,-97.3181,0.47,1111122 
TCOON,ioos:station:TCOON:013:1,2014-08-01T12:12:00Z,27.4847,-97.3181,0.471,1111122 
TCOON,ioos:station:TCOON:013:1,2014-08-01T13:12:00Z,27.4847,-97.3181,0.471,1111122 
TCOON,ioos:station:TCOON:013:1,2014-08-01T14:12:00Z,27.4847,-97.3181,0.469,1111122 
TCOON,ioos:station:TCOON:013:1,2014-08-01T15:12:00Z,27.4847,-97.3181,0.471,1111122 
TCOON,ioos:station:TCOON:013:1,2014-08-01T16:12:00Z,27.4847,-97.3181,0.472,1111122 
TCOON,ioos:station:TCOON:013:1,2014-08-01T17:12:00Z,27.4847,-97.3181,0.474,1111122 
TCOON,ioos:station:TCOON:013:1,2014-08-01T18:12:00Z,27.4847,-97.3181,0.474,1111122 
TCOON,ioos:station:TCOON:013:1,2014-08-01T19:12:00Z,27.4847,-97.3181,0.475,1111122 
TCOON,ioos:station:TCOON:013:1,2014-08-01T20:12:00Z,27.4847,-97.3181,0.473,1111122 
TCOON,ioos:station:TCOON:013:1,2014-08-01T21:12:00Z,27.4847,-97.3181,0.473,1111122 
TCOON,ioos:station:TCOON:013:1,2014-08-01T22:12:00Z,27.4847,-97.3181,0.462,1111122 
TCOON,ioos:station:TCOON:013:1,2014-08-01T23:12:00Z,27.4847,-97.3181,0.457,1111122 
TCOON,ioos:station:TCOON:013:1,2014-08-02T00:12:00Z,27.4847,-97.3181,0.457,1111122 
TCOON,ioos:station:TCOON:013:1,2014-08-02T01:12:00Z,27.4847,-97.3181,0.454,1111122 
TCOON,ioos:station:TCOON:013:1,2014-08-02T02:12:00Z,27.4847,-97.3181,0.455,1111122 
TCOON,ioos:station:TCOON:013:1,2014-08-02T03:12:00Z,27.4847,-97.3181,0.452,1111122 
TCOON,ioos:station:TCOON:013:1,2014-08-02T04:12:00Z,27.4847,-97.3181,0.455,1111122 
TCOON,ioos:station:TCOON:013:1,2014-08-02T05:12:00Z,27.4847,-97.3181,0.46,1111122 
TCOON,ioos:station:TCOON:013:1,2014-08-02T06:12:00Z,27.4847,-97.3181,0.466,1111122 
TCOON,ioos:station:TCOON:013:1,2014-08-02T07:30:00Z,27.4847,-97.3181,0.473,1111122 
TCOON,ioos:station:TCOON:013:1,2014-08-02T08:12:00Z,27.4847,-97.3181,0.477,1111122 
TCOON,ioos:station:TCOON:013:1,2014-08-02T09:12:00Z,27.4847,-97.3181,0.48,1111122 
TCOON,ioos:station:TCOON:013:1,2014-08-02T10:12:00Z,27.4847,-97.3181,0.481,1111122 
TCOON,ioos:station:TCOON:013:1,2014-08-02T11:18:00Z,27.4847,-97.3181,0.48,1111122 
TCOON,ioos:station:TCOON:013:1,2014-08-02T12:12:00Z,27.4847,-97.3181,0.472,1111122 
TCOON,ioos:station:TCOON:013:1,2014-08-02T13:12:00Z,27.4847,-97.3181,0.488,1111122 
TCOON,ioos:station:TCOON:013:1,2014-08-02T14:12:00Z,27.4847,-97.3181,0.495,1111122 
TCOON,ioos:station:TCOON:013:1,2014-08-02T15:12:00Z,27.4847,-97.3181,0.498,1111122 
TCOON,ioos:station:TCOON:013:1,2014-08-02T16:06:00Z,27.4847,-97.3181,0.5,1111122 
TCOON,ioos:station:TCOON:013:1,2014-08-02T17:12:00Z,27.4847,-97.3181,0.502,1111122 
TCOON,ioos:station:TCOON:013:1,2014-08-02T18:12:00Z,27.4847,-97.3181,0.503,1111122 
TCOON,ioos:station:TCOON:013:1,2014-08-02T19:12:00Z,27.4847,-97.3181,0.504,1111122 
TCOON,ioos:station:TCOON:013:1,2014-08-02T20:12:00Z,27.4847,-97.3181,0.505,1111122 
TCOON,ioos:station:TCOON:013:1,2014-08-02T21:12:00Z,27.4847,-97.3181,0.502,1111122 
TCOON,ioos:station:TCOON:013:1,2014-08-02T22:12:00Z,27.4847,-97.3181,0.498,1111122 
TCOON,ioos:station:TCOON:013:1,2014-08-02T23:12:00Z,27.4847,-97.3181,0.495,1111122 
TCOON,ioos:station:TCOON:013:1,2014-08-03T00:12:00Z,27.4847,-97.3181,0.492,1111122 
TCOON,ioos:station:TCOON:013:1,2014-08-03T01:12:00Z,27.4847,-97.3181,0.488,1111122 
TCOON,ioos:station:TCOON:013:1,2014-08-03T02:12:00Z,27.4847,-97.3181,0.486,1111122 
TCOON,ioos:station:TCOON:013:1,2014-08-03T03:12:00Z,27.4847,-97.3181,0.484,1111122 
TCOON,ioos:station:TCOON:013:1,2014-08-03T04:12:00Z,27.4847,-97.3181,0.485,1111122 
TCOON,ioos:station:TCOON:013:1,2014-08-03T05:12:00Z,27.4847,-97.3181,0.488,1111122 
TCOON,ioos:station:TCOON:013:1,2014-08-03T06:36:00Z,27.4847,-97.3181,0.489,1111122 
TCOON,ioos:station:TCOON:013:1,2014-08-03T07:06:00Z,27.4847,-97.3181,0.492,1111122 
TCOON,ioos:station:TCOON:013:1,2014-08-03T08:12:00Z,27.4847,-97.3181,0.498,1111122 
TCOON,ioos:station:TCOON:013:1,2014-08-03T09:12:00Z,27.4847,-97.3181,0.502,1111122 
TCOON,ioos:station:TCOON:013:1,2014-08-03T10:12:00Z,27.4847,-97.3181,0.509,1111122 
TCOON,ioos:station:TCOON:013:1,2014-08-03T11:12:00Z,27.4847,-97.3181,0.513,1111122 
TCOON,ioos:station:TCOON:013:1,2014-08-03T12:12:00Z,27.4847,-97.3181,0.517,1111122 
TCOON,ioos:station:TCOON:013:1,2014-08-03T13:12:00Z,27.4847,-97.3181,0.519,1111122 
TCOON,ioos:station:TCOON:013:1,2014-08-03T14:12:00Z,27.4847,-97.3181,0.519,1111122 
TCOON,ioos:station:TCOON:013:1,2014-08-03T15:12:00Z,27.4847,-97.3181,0.521,1111122 
TCOON,ioos:station:TCOON:013:1,2014-08-03T16:12:00Z,27.4847,-97.3181,0.527,1111122 
TCOON,ioos:station:TCOON:013:1,2014-08-03T17:12:00Z,27.4847,-97.3181,0.529,1111122 
TCOON,ioos:station:TCOON:013:1,2014-08-03T18:12:00Z,27.4847,-97.3181,0.529,1111122 
TCOON,ioos:station:TCOON:013:1,2014-08-03T19:12:00Z,27.4847,-97.3181,0.53,1111122 
TCOON,ioos:station:TCOON:013:1,2014-08-03T20:12:00Z,27.4847,-97.3181,0.529,1111122 
TCOON,ioos:station:TCOON:013:1,2014-08-03T21:12:00Z,27.4847,-97.3181,0.522,1111122 
TCOON,ioos:station:TCOON:013:1,2014-08-03T22:12:00Z,27.4847,-97.3181,0.518,1111122 
TCOON,ioos:station:TCOON:013:1,2014-08-03T23:12:00Z,27.4847,-97.3181,0.515,1111122 
TCOON,ioos:station:TCOON:013:1,2014-08-04T00:12:00Z,27.4847,-97.3181,0.507,1111122 
TCOON,ioos:station:TCOON:013:1,2014-08-04T01:12:00Z,27.4847,-97.3181,0.505,1111122 
TCOON,ioos:station:TCOON:013:1,2014-08-04T02:12:00Z,27.4847,-97.3181,0.498,1111122 
TCOON,ioos:station:TCOON:013:1,2014-08-04T03:12:00Z,27.4847,-97.3181,0.493,1111122 
TCOON,ioos:station:TCOON:013:1,2014-08-04T04:12:00Z,27.4847,-97.3181,0.49,1111122 
TCOON,ioos:station:TCOON:013:1,2014-08-04T05:12:00Z,27.4847,-97.3181,0.489,1111122 
TCOON,ioos:station:TCOON:013:1,2014-08-04T06:42:00Z,27.4847,-97.3181,0.493,1111122 
TCOON,ioos:station:TCOON:013:1,2014-08-04T07:12:00Z,27.4847,-97.3181,0.494,1111122 
TCOON,ioos:station:TCOON:013:1,2014-08-04T08:12:00Z,27.4847,-97.3181,0.497,1111122 
TCOON,ioos:station:TCOON:013:1,2014-08-04T09:12:00Z,27.4847,-97.3181,0.47,1111122 
TCOON,ioos:station:TCOON:013:1,2014-08-04T10:12:00Z,27.4847,-97.3181,0.509,1111122 
TCOON,ioos:station:TCOON:013:1,2014-08-04T11:12:00Z,27.4847,-97.3181,0.517,1111122 
TCOON,ioos:station:TCOON:013:1,2014-08-04T12:12:00Z,27.4847,-97.3181,0.525,1111122 
TCOON,ioos:station:TCOON:013:1,2014-08-04T13:12:00Z,27.4847,-97.3181,0.531,1111122 
TCOON,ioos:station:TCOON:013:1,2014-08-04T14:12:00Z,27.4847,-97.3181,0.537,1111122 
TCOON,ioos:station:TCOON:013:1,2014-08-04T15:06:00Z,27.4847,-97.3181,0.544,1111122 
TCOON,ioos:station:TCOON:013:1,2014-08-04T16:12:00Z,27.4847,-97.3181,0.545,1111122 
TCOON,ioos:station:TCOON:013:1,2014-08-04T17:12:00Z,27.4847,-97.3181,0.547,1111122 
TCOON,ioos:station:TCOON:013:1,2014-08-04T18:12:00Z,27.4847,-97.3181,0.554,1111122 
TCOON,ioos:station:TCOON:013:1,2014-08-04T19:12:00Z,27.4847,-97.3181,0.552,1111122 
TCOON,ioos:station:TCOON:013:1,2014-08-04T20:06:00Z,27.4847,-97.3181,0.548,1111122 
TCOON,ioos:station:TCOON:013:1,2014-08-04T21:12:00Z,27.4847,-97.3181,0.543,1111122 
TCOON,ioos:station:TCOON:013:1,2014-08-04T22:12:00Z,27.4847,-97.3181,0.536,1111122 
TCOON,ioos:station:TCOON:013:1,2014-08-04T23:12:00Z,27.4847,-97.3181,0.531,1111122 
TCOON,ioos:station:TCOON:013:1,2014-08-05T00:12:00Z,27.4847,-97.3181,0.523,1111122 
TCOON,ioos:station:TCOON:013:1,2014-08-05T01:12:00Z,27.4847,-97.3181,0.511,1111122 
TCOON,ioos:station:TCOON:013:1,2014-08-05T02:12:00Z,27.4847,-97.3181,0.504,1111122 
TCOON,ioos:station:TCOON:013:1,2014-08-05T03:12:00Z,27.4847,-97.3181,0.498,1111122 
TCOON,ioos:station:TCOON:013:1,2014-08-05T04:12:00Z,27.4847,-97.3181,0.495,1111122 
TCOON,ioos:station:TCOON:013:1,2014-08-05T05:12:00Z,27.4847,-97.3181,0.496,1111122 
TCOON,ioos:station:TCOON:013:1,2014-08-05T06:12:00Z,27.4847,-97.3181,0.499,1111122 
TCOON,ioos:station:TCOON:013:1,2014-08-05T07:12:00Z,27.4847,-97.3181,0.503,1111122 
TCOON,ioos:station:TCOON:013:1,2014-08-05T08:12:00Z,27.4847,-97.3181,0.507,1111122 
TCOON,ioos:station:TCOON:013:1,2014-08-05T09:12:00Z,27.4847,-97.3181,0.514,1111122 
TCOON,ioos:station:TCOON:013:1,2014-08-05T10:12:00Z,27.4847,-97.3181,0.522,1111122 
TCOON,ioos:station:TCOON:013:1,2014-08-05T11:12:00Z,27.4847,-97.3181,0.529,1111122 
TCOON,ioos:station:TCOON:013:1,2014-08-05T12:18:00Z,27.4847,-97.3181,0.539,1111122 
TCOON,ioos:station:TCOON:013:1,2014-08-05T13:12:00Z,27.4847,-97.3181,0.546,1111122 
TCOON,ioos:station:TCOON:013:1,2014-08-05T14:12:00Z,27.4847,-97.3181,0.552,1111122 
TCOON,ioos:station:TCOON:013:1,2014-08-05T15:12:00Z,27.4847,-97.3181,0.554,1111122 
TCOON,ioos:station:TCOON:013:1,2014-08-05T16:12:00Z,27.4847,-97.3181,0.557,1111122 
TCOON,ioos:station:TCOON:013:1,2014-08-05T17:12:00Z,27.4847,-97.3181,0.563,1111122 
TCOON,ioos:station:TCOON:013:1,2014-08-05T18:12:00Z,27.4847,-97.3181,0.563,1111122 
TCOON,ioos:station:TCOON:013:1,2014-08-05T19:12:00Z,27.4847,-97.3181,0.565,1111122 
TCOON,ioos:station:TCOON:013:1,2014-08-05T20:12:00Z,27.4847,-97.3181,0.566,1111122 
TCOON,ioos:station:TCOON:013:1,2014-08-05T21:18:00Z,27.4847,-97.3181,0.557,1111122 
TCOON,ioos:station:TCOON:013:1,2014-08-05T22:12:00Z,27.4847,-97.3181,0.552,1111122 
TCOON,ioos:station:TCOON:013:1,2014-08-05T23:12:00Z,27.4847,-97.3181,0.551,1111122 
TCOON,ioos:station:TCOON:013:1,2014-08-06T00:12:00Z,27.4847,-97.3181,0.549,1111122 
TCOON,ioos:station:TCOON:013:1,2014-08-06T01:12:00Z,27.4847,-97.3181,0.54,1111122 
TCOON,ioos:station:TCOON:013:1,2014-08-06T02:12:00Z,27.4847,-97.3181,0.536,1111122 
TCOON,ioos:station:TCOON:013:1,2014-08-06T03:18:00Z,27.4847,-97.3181,0.534,1111122 
TCOON,ioos:station:TCOON:013:1,2014-08-06T04:12:00Z,27.4847,-97.3181,0.533,1111122 
TCOON,ioos:station:TCOON:013:1,2014-08-06T05:12:00Z,27.4847,-97.3181,0.532,1111122 
TCOON,ioos:station:TCOON:013:1,2014-08-06T06:36:00Z,27.4847,-97.3181,0.532,1111122 
TCOON,ioos:station:TCOON:013:1,2014-08-06T07:12:00Z,27.4847,-97.3181,0.531,1111122 
TCOON,ioos:station:TCOON:013:1,2014-08-06T08:12:00Z,27.4847,-97.3181,0.529,1111122 
TCOON,ioos:station:TCOON:013:1,2014-08-06T09:12:00Z,27.4847,-97.3181,0.53,1111122 
TCOON,ioos:station:TCOON:013:1,2014-08-06T10:12:00Z,27.4847,-97.3181,0.53,1111122 
TCOON,ioos:station:TCOON:013:1,2014-08-06T11:06:00Z,27.4847,-97.3181,0.533,1111122 
TCOON,ioos:station:TCOON:013:1,2014-08-06T12:12:00Z,27.4847,-97.3181,0.54,1111122 
TCOON,ioos:station:TCOON:013:1,2014-08-06T13:12:00Z,27.4847,-97.3181,0.55,1111122 
TCOON,ioos:station:TCOON:013:1,2014-08-06T14:12:00Z,27.4847,-97.3181,0.563,1111122 
TCOON,ioos:station:TCOON:013:1,2014-08-06T15:12:00Z,27.4847,-97.3181,0.572,1111122 
TCOON,ioos:station:TCOON:013:1,2014-08-06T16:12:00Z,27.4847,-97.3181,0.574,1111122 
TCOON,ioos:station:TCOON:013:1,2014-08-06T17:12:00Z,27.4847,-97.3181,0.578,1111122 
TCOON,ioos:station:TCOON:013:1,2014-08-06T18:12:00Z,27.4847,-97.3181,0.583,1111122 
TCOON,ioos:station:TCOON:013:1,2014-08-06T19:12:00Z,27.4847,-97.3181,0.581,1111122 
TCOON,ioos:station:TCOON:013:1,2014-08-06T20:12:00Z,27.4847,-97.3181,0.581,1111122 
TCOON,ioos:station:TCOON:013:1,2014-08-06T21:12:00Z,27.4847,-97.3181,0.58,1111122 
TCOON,ioos:station:TCOON:013:1,2014-08-06T22:12:00Z,27.4847,-97.3181,0.576,1111122 
TCOON,ioos:station:TCOON:013:1,2014-08-06T23:12:00Z,27.4847,-97.3181,0.567,1111122 
TCOON,ioos:station:TCOON:013:1,2014-08-07T00:12:00Z,27.4847,-97.3181,0.561,1111122 
TCOON,ioos:station:TCOON:013:1,2014-08-07T01:12:00Z,27.4847,-97.3181,0.555,1111122 
TCOON,ioos:station:TCOON:013:1,2014-08-07T02:12:00Z,27.4847,-97.3181,0.549,1111122 
TCOON,ioos:station:TCOON:013:1,2014-08-07T03:12:00Z,27.4847,-97.3181,0.54,1111122 
TCOON,ioos:station:TCOON:013:1,2014-08-07T04:12:00Z,27.4847,-97.3181,0.533,1111122 
TCOON,ioos:station:TCOON:013:1,2014-08-07T05:12:00Z,27.4847,-97.3181,0.529,1111122 
TCOON,ioos:station:TCOON:013:1,2014-08-07T06:36:00Z,27.4847,-97.3181,0.53,1111122 
TCOON,ioos:station:TCOON:013:1,2014-08-07T07:12:00Z,27.4847,-97.3181,0.529,1111122 
TCOON,ioos:station:TCOON:013:1,2014-08-07T08:12:00Z,27.4847,-97.3181,0.53,1111122 
TCOON,ioos:station:TCOON:013:1,2014-08-07T09:12:00Z,27.4847,-97.3181,0.53,1111122 
TCOON,ioos:station:TCOON:013:1,2014-08-07T10:12:00Z,27.4847,-97.3181,0.53,1111122 
TCOON,ioos:station:TCOON:013:1,2014-08-07T11:12:00Z,27.4847,-97.3181,0.531,1111122 
TCOON,ioos:station:TCOON:013:1,2014-08-07T12:06:00Z,27.4847,-97.3181,0.532,1111122 
TCOON,ioos:station:TCOON:013:1,2014-08-07T13:06:00Z,27.4847,-97.3181,0.536,1111122 
TCOON,ioos:station:TCOON:013:1,2014-08-07T14:12:00Z,27.4847,-97.3181,0.542,1111122 
TCOON,ioos:station:TCOON:013:1,2014-08-07T15:12:00Z,27.4847,-97.3181,0.549,1111122 
TCOON,ioos:station:TCOON:013:1,2014-08-07T16:12:00Z,27.4847,-97.3181,0.558,1111122 
TCOON,ioos:station:TCOON:013:1,2014-08-07T17:12:00Z,27.4847,-97.3181,0.561,1111122 
TCOON,ioos:station:TCOON:013:1,2014-08-07T18:12:00Z,27.4847,-97.3181,0.565,1111122 
TCOON,ioos:station:TCOON:013:1,2014-08-07T19:12:00Z,27.4847,-97.3181,0.564,1111122 
TCOON,ioos:station:TCOON:013:1,2014-08-07T20:12:00Z,27.4847,-97.3181,0.564,1111122 
TCOON,ioos:station:TCOON:013:1,2014-08-07T21:12:00Z,27.4847,-97.3181,0.56,1111122 
TCOON,ioos:station:TCOON:013:1,2014-08-07T22:12:00Z,27.4847,-97.3181,0.556,1111122 
TCOON,ioos:station:TCOON:013:1,2014-08-07T23:18:00Z,27.4847,-97.3181,0.552,1111122 
TCOON,ioos:station:TCOON:013:1,2014-08-08T00:12:00Z,27.4847,-97.3181,0.546,1111122 
TCOON,ioos:station:TCOON:013:1,2014-08-08T01:12:00Z,27.4847,-97.3181,0.543,1111122 
TCOON,ioos:station:TCOON:013:1,2014-08-08T02:06:00Z,27.4847,-97.3181,0.536,1111122 
TCOON,ioos:station:TCOON:013:1,2014-08-08T03:12:00Z,27.4847,-97.3181,0.533,1111122 
TCOON,ioos:station:TCOON:013:1,2014-08-08T04:12:00Z,27.4847,-97.3181,0.529,1111122 
TCOON,ioos:station:TCOON:013:1,2014-08-08T05:12:00Z,27.4847,-97.3181,0.528,1111122 
TCOON,ioos:station:TCOON:013:1,2014-08-08T06:36:00Z,27.4847,-97.3181,0.528,1111122 
TCOON,ioos:station:TCOON:013:1,2014-08-08T07:12:00Z,27.4847,-97.3181,0.527,1111122 
TCOON,ioos:station:TCOON:013:1,2014-08-08T08:12:00Z,27.4847,-97.3181,0.526,1111122 
TCOON,ioos:station:TCOON:013:1,2014-08-08T09:12:00Z,27.4847,-97.3181,0.526,1111122 
TCOON,ioos:station:TCOON:013:1,2014-08-08T10:12:00Z,27.4847,-97.3181,0.526,1111122 
TCOON,ioos:station:TCOON:013:1,2014-08-08T11:12:00Z,27.4847,-97.3181,0.525,1111122 
TCOON,ioos:station:TCOON:013:1,2014-08-08T12:12:00Z,27.4847,-97.3181,0.526,1111122 
TCOON,ioos:station:TCOON:013:1,2014-08-08T13:12:00Z,27.4847,-97.3181,0.525,1111122 
TCOON,ioos:station:TCOON:013:1,2014-08-08T14:12:00Z,27.4847,-97.3181,0.531,1111122 
TCOON,ioos:station:TCOON:013:1,2014-08-08T15:12:00Z,27.4847,-97.3181,0.539,1111122 
TCOON,ioos:station:TCOON:013:1,2014-08-08T16:12:00Z,27.4847,-97.3181,0.545,1111122 
TCOON,ioos:station:TCOON:013:1,2014-08-08T17:12:00Z,27.4847,-97.3181,0.558,1111122 
TCOON,ioos:station:TCOON:013:1,2014-08-08T18:12:00Z,27.4847,-97.3181,0.559,1111122 
TCOON,ioos:station:TCOON:013:1,2014-08-08T19:42:00Z,27.4847,-97.3181,0.564,1111122 
TCOON,ioos:station:TCOON:013:1,2014-08-08T20:12:00Z,27.4847,-97.3181,0.567,1111122 
TCOON,ioos:station:TCOON:013:1,2014-08-08T21:12:00Z,27.4847,-97.3181,0.569,1111122 
TCOON,ioos:station:TCOON:013:1,2014-08-08T22:12:00Z,27.4847,-97.3181,0.569,1111122 
TCOON,ioos:station:TCOON:013:1,2014-08-08T23:12:00Z,27.4847,-97.3181,0.566,1111122 
TCOON,ioos:station:TCOON:013:1,2014-08-09T00:12:00Z,27.4847,-97.3181,0.559,1111122 
TCOON,ioos:station:TCOON:013:1,2014-08-09T01:12:00Z,27.4847,-97.3181,0.553,1111122 
TCOON,ioos:station:TCOON:013:1,2014-08-09T02:12:00Z,27.4847,-97.3181,0.549,1111122 
TCOON,ioos:station:TCOON:013:1,2014-08-09T03:12:00Z,27.4847,-97.3181,0.545,1111122 
TCOON,ioos:station:TCOON:013:1,2014-08-09T04:12:00Z,27.4847,-97.3181,0.544,1111122 
TCOON,ioos:station:TCOON:013:1,2014-08-09T05:12:00Z,27.4847,-97.3181,0.542,1111122 
TCOON,ioos:station:TCOON:013:1,2014-08-09T06:12:00Z,27.4847,-97.3181,0.538,1111122 
TCOON,ioos:station:TCOON:013:1,2014-08-09T07:12:00Z,27.4847,-97.3181,0.535,1111122 
TCOON,ioos:station:TCOON:013:1,2014-08-09T08:12:00Z,27.4847,-97.3181,0.529,1111122 
TCOON,ioos:station:TCOON:013:1,2014-08-09T09:12:00Z,27.4847,-97.3181,0.525,1111122 
TCOON,ioos:station:TCOON:013:1,2014-08-09T10:12:00Z,27.4847,-97.3181,0.521,1111122 
TCOON,ioos:station:TCOON:013:1,2014-08-09T11:12:00Z,27.4847,-97.3181,0.521,1111122 
TCOON,ioos:station:TCOON:013:1,2014-08-09T12:12:00Z,27.4847,-97.3181,0.518,1111122 
TCOON,ioos:station:TCOON:013:1,2014-08-09T13:12:00Z,27.4847,-97.3181,0.516,1111122 
TCOON,ioos:station:TCOON:013:1,2014-08-09T14:12:00Z,27.4847,-97.3181,0.522,1111122 
TCOON,ioos:station:TCOON:013:1,2014-08-09T15:12:00Z,27.4847,-97.3181,0.53,1111122 
TCOON,ioos:station:TCOON:013:1,2014-08-09T16:12:00Z,27.4847,-97.3181,0.535,1111122 
TCOON,ioos:station:TCOON:013:1,2014-08-09T17:12:00Z,27.4847,-97.3181,0.543,1111122 
TCOON,ioos:station:TCOON:013:1,2014-08-09T18:18:00Z,27.4847,-97.3181,0.549,1111122 
TCOON,ioos:station:TCOON:013:1,2014-08-09T19:12:00Z,27.4847,-97.3181,0.557,1111122 
TCOON,ioos:station:TCOON:013:1,2014-08-09T20:12:00Z,27.4847,-97.3181,0.56,1111122 
TCOON,ioos:station:TCOON:013:1,2014-08-09T21:12:00Z,27.4847,-97.3181,0.558,1111122 
TCOON,ioos:station:TCOON:013:1,2014-08-09T22:12:00Z,27.4847,-97.3181,0.556,1111122 
TCOON,ioos:station:TCOON:013:1,2014-08-09T23:12:00Z,27.4847,-97.3181,0.563,1111122 
TCOON,ioos:station:TCOON:013:1,2014-08-10T00:12:00Z,27.4847,-97.3181,0.565,1111122 
TCOON,ioos:station:TCOON:013:1,2014-08-10T01:06:00Z,27.4847,-97.3181,0.565,1111122 
TCOON,ioos:station:TCOON:013:1,2014-08-10T02:12:00Z,27.4847,-97.3181,0.559,1111122 
TCOON,ioos:station:TCOON:013:1,2014-08-10T03:12:00Z,27.4847,-97.3181,0.552,1111122 
TCOON,ioos:station:TCOON:013:1,2014-08-10T04:12:00Z,27.4847,-97.3181,0.545,1111122 
TCOON,ioos:station:TCOON:013:1,2014-08-10T05:12:00Z,27.4847,-97.3181,0.536,1111122 
TCOON,ioos:station:TCOON:013:1,2014-08-10T06:42:00Z,27.4847,-97.3181,0.53,1111122 
TCOON,ioos:station:TCOON:013:1,2014-08-10T07:12:00Z,27.4847,-97.3181,0.527,1111122 
TCOON,ioos:station:TCOON:013:1,2014-08-10T08:12:00Z,27.4847,-97.3181,0.521,1111122 
TCOON,ioos:station:TCOON:013:1,2014-08-10T09:12:00Z,27.4847,-97.3181,0.519,1111122 
TCOON,ioos:station:TCOON:013:1,2014-08-10T10:12:00Z,27.4847,-97.3181,0.517,1111122 
TCOON,ioos:station:TCOON:013:1,2014-08-10T11:12:00Z,27.4847,-97.3181,0.516,1111122 
TCOON,ioos:station:TCOON:013:1,2014-08-10T12:12:00Z,27.4847,-97.3181,0.516,1111122 
TCOON,ioos:station:TCOON:013:1,2014-08-10T13:06:00Z,27.4847,-97.3181,0.518,1111122 
TCOON,ioos:station:TCOON:013:1,2014-08-10T14:12:00Z,27.4847,-97.3181,0.521,1111122 
TCOON,ioos:station:TCOON:013:1,2014-08-10T15:12:00Z,27.4847,-97.3181,0.524,1111122 
TCOON,ioos:station:TCOON:013:1,2014-08-10T16:30:00Z,27.4847,-97.3181,0.529,1111122 
TCOON,ioos:station:TCOON:013:1,2014-08-10T17:12:00Z,27.4847,-97.3181,0.535,1111122 
TCOON,ioos:station:TCOON:013:1,2014-08-10T18:12:00Z,27.4847,-97.3181,0.544,1111122 
TCOON,ioos:station:TCOON:013:1,2014-08-10T19:12:00Z,27.4847,-97.3181,0.55,1111122 
TCOON,ioos:station:TCOON:013:1,2014-08-10T20:24:00Z,27.4847,-97.3181,0.552,1111122 
TCOON,ioos:station:TCOON:013:1,2014-08-10T21:12:00Z,27.4847,-97.3181,0.55,1111122 
TCOON,ioos:station:TCOON:013:1,2014-08-10T22:12:00Z,27.4847,-97.3181,0.547,1111122 
TCOON,ioos:station:TCOON:013:1,2014-08-10T23:12:00Z,27.4847,-97.3181,0.547,1111122 
TCOON,ioos:station:TCOON:013:1,2014-08-11T00:12:00Z,27.4847,-97.3181,0.547,1111122 
TCOON,ioos:station:TCOON:013:1,2014-08-11T01:12:00Z,27.4847,-97.3181,0.546,1111122 
TCOON,ioos:station:TCOON:013:1,2014-08-11T02:12:00Z,27.4847,-97.3181,0.543,1111122 
TCOON,ioos:station:TCOON:013:1,2014-08-11T03:12:00Z,27.4847,-97.3181,0.543,1111122 
TCOON,ioos:station:TCOON:013:1,2014-08-11T04:12:00Z,27.4847,-97.3181,0.543,1111122 
TCOON,ioos:station:TCOON:013:1,2014-08-11T05:12:00Z,27.4847,-97.3181,0.543,1111122 
TCOON,ioos:station:TCOON:013:1,2014-08-11T06:12:00Z,27.4847,-97.3181,0.544,1111122 
TCOON,ioos:station:TCOON:013:1,2014-08-11T07:12:00Z,27.4847,-97.3181,0.544,1111122 
TCOON,ioos:station:TCOON:013:1,2014-08-11T08:12:00Z,27.4847,-97.3181,0.54,1111122 
TCOON,ioos:station:TCOON:013:1,2014-08-11T09:12:00Z,27.4847,-97.3181,0.537,1111122 
TCOON,ioos:station:TCOON:013:1,2014-08-11T10:12:00Z,27.4847,-97.3181,0.531,1111122 
TCOON,ioos:station:TCOON:013:1,2014-08-11T11:12:00Z,27.4847,-97.3181,0.53,1111122 
TCOON,ioos:station:TCOON:013:1,2014-08-11T12:12:00Z,27.4847,-97.3181,0.53,1111122 
TCOON,ioos:station:TCOON:013:1,2014-08-11T13:12:00Z,27.4847,-97.3181,0.531,1111122 
TCOON,ioos:station:TCOON:013:1,2014-08-11T14:12:00Z,27.4847,-97.3181,0.532,1111122 
TCOON,ioos:station:TCOON:013:1,2014-08-11T15:12:00Z,27.4847,-97.3181,0.539,1111122 
TCOON,ioos:station:TCOON:013:1,2014-08-11T16:12:00Z,27.4847,-97.3181,0.55,1111122 
TCOON,ioos:station:TCOON:013:1,2014-08-11T17:18:00Z,27.4847,-97.3181,0.555,1111122 
TCOON,ioos:station:TCOON:013:1,2014-08-11T18:06:00Z,27.4847,-97.3181,0.558,1111122 
TCOON,ioos:station:TCOON:013:1,2014-08-11T19:12:00Z,27.4847,-97.3181,0.561,1111122 
TCOON,ioos:station:TCOON:013:1,2014-08-11T20:12:00Z,27.4847,-97.3181,0.562,1111122 
TCOON,ioos:station:TCOON:013:1,2014-08-12T00:06:00Z,27.4847,-97.3181,0.558,1111122 
TCOON,ioos:station:TCOON:013:1,2014-08-12T01:06:00Z,27.4847,-97.3181,0.555,1111122 
TCOON,ioos:station:TCOON:013:1,2014-08-12T02:12:00Z,27.4847,-97.3181,0.559,1111122 
TCOON,ioos:station:TCOON:013:1,2014-08-12T03:12:00Z,27.4847,-97.3181,0.561,1111122 
TCOON,ioos:station:TCOON:013:1,2014-08-12T04:12:00Z,27.4847,-97.3181,0.561,1111122 
TCOON,ioos:station:TCOON:013:1,2014-08-12T05:12:00Z,27.4847,-97.3181,0.562,1111122 
TCOON,ioos:station:TCOON:013:1,2014-08-12T06:36:00Z,27.4847,-97.3181,0.562,1111122 
TCOON,ioos:station:TCOON:013:1,2014-08-12T07:12:00Z,27.4847,-97.3181,0.56,1111122 
TCOON,ioos:station:TCOON:013:1,2014-08-12T08:06:00Z,27.4847,-97.3181,0.561,1111122 
TCOON,ioos:station:TCOON:013:1,2014-08-12T09:12:00Z,27.4847,-97.3181,0.559,1111122 
TCOON,ioos:station:TCOON:013:1,2014-08-12T10:12:00Z,27.4847,-97.3181,0.559,1111122 
TCOON,ioos:station:TCOON:013:1,2014-08-12T11:12:00Z,27.4847,-97.3181,0.552,1111122 
TCOON,ioos:station:TCOON:013:1,2014-08-12T12:12:00Z,27.4847,-97.3181,0.551,1111122 
TCOON,ioos:station:TCOON:013:1,2014-08-12T13:24:00Z,27.4847,-97.3181,0.551,1111122 
TCOON,ioos:station:TCOON:013:1,2014-08-19T14:12:00Z,27.4847,-97.3181,0.51,1111122 
TCOON,ioos:station:TCOON:013:1,2014-08-19T15:12:00Z,27.4847,-97.3181,0.517,1111122 
TCOON,ioos:station:TCOON:013:1,2014-08-19T16:12:00Z,27.4847,-97.3181,0.523,1111122 
TCOON,ioos:station:TCOON:013:1,2014-08-19T17:12:00Z,27.4847,-97.3181,0.529,1111122 
TCOON,ioos:station:TCOON:013:1,2014-08-19T18:12:00Z,27.4847,-97.3181,0.531,1111122 
TCOON,ioos:station:TCOON:013:1,2014-08-19T19:12:00Z,27.4847,-97.3181,0.531,1111122 
TCOON,ioos:station:TCOON:013:1,2014-08-19T20:12:00Z,27.4847,-97.3181,0.527,1111122 
TCOON,ioos:station:TCOON:013:1,2014-08-19T21:12:00Z,27.4847,-97.3181,0.522,1111122 
TCOON,ioos:station:TCOON:013:1,2014-08-19T22:12:00Z,27.4847,-97.3181,0.523,1111122 
TCOON,ioos:station:TCOON:013:1,2014-08-19T23:12:00Z,27.4847,-97.3181,0.517,1111122 